Vorticity
17 17 17 24 31 29 23 14 10 9 8 9 7 6 8 6 10 10 9 10 9 7 8 7 7 5 6 6 4 6 -3 2 14 5 7 -0 1 -4 1 44 -2 21 35
36 36 23 19 15 11 16 25 26 16 10 11 8 8 8 6 5 8 12 11 9 11 9 8 8 7 5 6 6 6 6 3 -0 8 -0 17 1 5 -2 4 -0 -2 -9
40 31 36 33 36 27 20 10 16 25 22 9 10 7 5 7 5 5 9 11 14 8 10 9 8 9 10 8 10 6 7 3 2 2 5 7 3 17 9 1 8 17 -12
16 2 -1 12 9 33 35 25 25 20 21 23 12 9 6 6 7 9 8 9 7 14 7 8 9 8 9 9 10 9 10 7 3 2 0 4 5 1 14 6 8 16 4
8 10 14 -3 24 25 12 56 47 37 24 19 21 11 9 7 7 12 7 10 12 8 16 10 6 8 9 10 8 8 5 4 4 6 4 7 5 4 3 10 13 7 -0
8 22 21 16 3 5 30 48 51 30 44 25 22 18 10 14 11 10 10 6 7 14 14 14 13 8 5 7 8 6 6 6 6 6 6 9 13 7 3 7 6 3 10
17 21 31 28 19 26 11 38 42 37 14 30 30 19 10 11 12 10 8 7 8 15 13 13 11 10 12 10 8 7 5 1 2 14 13 3 19 18 31 14 32 22 17
5 20 26 30 29 27 46 46 33 29 30 36 20 18 8 9 15 15 12 14 15 17 14 15 18 19 20 18 15 17 17 21 26 18 19 27 29 14 11 -1 4 6 17
15 9 31 11 33 18 14 15 21 24 26 20 12 7 5 13 13 19 18 12 16 13 10 11 13 13 13 16 23 19 18 17 57 25 16 18 33 11 57 28 40 20 21
-2 10 7 14 8 8 25 15 12 11 11 10 10 16 20 15 15 15 15 17 17 22 23 22 27 22 21 20 54 50 55 57 8 -7 21 18 0 4 3 -3 -7 -1 15
41 41 31 -6 -14 12 8 13 26 25 28 27 30 27 23 32 29 26 12 4 -4 8 24 48 41 49 63 13 25 6 1 -3 -4 0 -3 -5 -2 -3 -1 2 2 5 4
50 15 16 36 18 45 21 10 27 12 -3 0 2 14 -1 -8 -16 4 29 9 -4 3 11 -3 -5 -11 -11 4 -3 -6 3 3 -1 2 3 5 12 5 -1 -1 1 2 5
-15 8 4 -2 1 0 -2 65 1 27 25 10 13 27 26 25 36 11 2 10 25 7 -0 -9 -7 -0 3 4 4 -0 2 1 0 4 4 3 3 4 4 -1 -1 1 6
9 2 -3 -1 -1 3 0 -1 2 6 -2 -4 -5 -2 -7 -4 -3 -5 4 5 4 2 5 5 5 5 4 1 1 -0 2 1 2 3 1 0 2 7 2 9 -1 2 9
2 -0 -0 -1 3 4 4 2 3 8 3 4 9 7 6 6 6 5 3 3 4 4 4 5 4 3 2 5 4 2 2 2 2 1 3 4 -1 5 1 6 2 6 2
1 3 2 -1 -1 0 8 4 2 3 1 1 0 1 2 5 5 4 5 7 6 7 5 4 3 3 4 3 2 3 2 3 2 4 4 1 3 5 4 6 3 4 3
5 5 1 1 6 2 -1 6 7 3 2 2 0 3 4 2 1 2 2 3 5 9 7 7 8 8 8 6 6 4 6 3 6 5 9 6 4 4 2 1 6 7 2
5 5 7 7 7 8 8 8 10 10 6 4 4 2 1 5 5 4 3 4 3 6 9 8 7 5 4 5 5 4 6 4 5 7 8 6 5 2 1 4 6 6 -1
10 10 9 8 7 6 7 8 9 9 7 8 9 8 6 3 3 5 4 4 3 4 4 4 4 5 5 6 7 4 2 -1 2 3 7 9 6 4 8 11 6 5 6
9 8 10 11 10 9 10 8 6 7 10 12 10 8 6 5 5 6 5 6 6 5 6 7 5 5 6 6 6 6 6 1 0 3 8 13 9 9 8 12 9 3 7
4 6 9 9 8 8 7 7 8 7 5 6 9 10 10 10 9 8 8 7 9 10 9 7 5 6 5 4 3 3 1 4 6 7 19 10 7 7 7 9 7 13 25
6 7 7 5 2 1 1 1 4 4 4 9 11 10 7 7 7 7 7 7 7 7 5 4 5 4 3 1 -0 8 14 14 13 17 10 7 6 8 6 10 10 21 34
10 8 7 5 5 5 5 6 5 7 7 7 7 6 6 10 14 14 10 8 6 6 5 4 4 5 4 3 15 9 8 12 16 13 7 8 9 9 9 9 27 23 11
8 10 16 16 17 14 11 11 12 12 14 13 9 6 9 6 10 18 19 23 18 14 16 14 12 10 11 12 12 9 12 15 14 10 11 13 12 9 12 20 27 13 14
6 6 5 1 6 6 8 9 10 11 10 10 13 12 11 10 13 15 19 17 13 11 20 22 11 11 12 9 7 10 13 14 10 8 9 9 9 11 14 28 12 13 3
6 4 5 10 10 4 9 9 -2 -0 3 -1 -4 -6 -4 1 -1 3 -6 7 16 18 23 12 16 12 11 10 13 17 18 12 12 8 9 8 9 14 19 27 8 13 5
Height
5669 5665 5664 5662 5662 5665 5669 5672 5678 5684 5691 5699 5707 5715 5723 5727 5731 5735 5741 5745 5750 5753 5757 5760 5763 5767 5772 5775 5776 5777 5777 5778 5778 5778 5779 5778 5776 5776 5779 5779 5780 5782 5781
5653 5647 5644 5643 5642 5643 5645 5647 5653 5659 5670 5678 5687 5698 5706 5712 5717 5723 5728 5733 5737 5743 5745 5749 5754 5757 5760 5764 5767 5767 5768 5769 5770 5769 5769 5769 5770 5769 5771 5770 5771 5772 5771
5644 5635 5631 5628 5627 5625 5624 5626 5630 5635 5645 5658 5669 5680 5689 5699 5707 5712 5717 5722 5727 5731 5735 5739 5742 5746 5750 5753 5756 5758 5758 5758 5759 5760 5759 5758 5760 5761 5761 5761 5761 5760 5760
5637 5630 5624 5619 5613 5607 5603 5603 5606 5613 5624 5636 5649 5664 5678 5688 5695 5702 5707 5712 5717 5720 5724 5728 5732 5736 5740 5743 5746 5747 5748 5748 5749 5748 5749 5748 5747 5748 5749 5749 5750 5749 5750
5630 5622 5615 5608 5601 5593 5586 5578 5579 5592 5605 5618 5634 5652 5666 5676 5684 5691 5697 5701 5706 5711 5715 5718 5722 5726 5728 5732 5734 5737 5738 5739 5739 5738 5737 5737 5737 5736 5737 5737 5738 5738 5738
5623 5614 5606 5599 5591 5583 5573 5563 5563 5575 5590 5605 5623 5642 5656 5666 5675 5682 5688 5694 5698 5702 5705 5708 5712 5715 5718 5721 5722 5724 5726 5727 5727 5726 5726 5725 5725 5724 5722 5722 5724 5723 5724
5619 5609 5599 5591 5586 5578 5570 5561 5562 5573 5588 5603 5618 5634 5649 5659 5667 5675 5681 5686 5689 5692 5694 5697 5700 5702 5706 5708 5710 5713 5714 5714 5714 5714 5715 5715 5712 5712 5711 5709 5708 5708 5708
5618 5608 5598 5591 5583 5578 5572 5566 5570 5578 5590 5603 5617 5633 5644 5654 5660 5668 5673 5677 5680 5682 5685 5687 5689 5692 5695 5697 5699 5701 5702 5702 5702 5702 5702 5703 5703 5701 5700 5699 5698 5696 5694
5619 5611 5604 5596 5589 5583 5579 5577 5581 5587 5597 5608 5621 5633 5642 5648 5654 5660 5664 5669 5673 5675 5678 5680 5681 5683 5686 5689 5691 5690 5689 5692 5693 5690 5690 5692 5691 5692 5689 5687 5686 5684 5686
5622 5618 5612 5607 5601 5596 5592 5593 5596 5602 5609 5616 5624 5632 5638 5643 5649 5655 5659 5664 5668 5670 5671 5672 5674 5675 5678 5682 5682 5679 5681 5682 5684 5687 5683 5683 5684 5684 5683 5681 5679 5678 5676
5629 5626 5622 5620 5616 5612 5609 5609 5609 5612 5616 5621 5627 5632 5637 5643 5648 5653 5657 5660 5662 5665 5667 5667 5668 5668 5670 5674 5677 5678 5681 5678 5678 5680 5678 5678 5677 5677 5673 5671 5670 5668 5667
5644 5641 5637 5634 5629 5626 5623 5622 5622 5625 5627 5630 5632 5636 5640 5643 5648 5652 5650 5656 5657 5659 5660 5664 5666 5668 5669 5671 5672 5672 5672 5671 5672 5672 5671 5669 5667 5665 5664 5662 5662 5658 5656
5655 5651 5648 5645 5642 5639 5636 5632 5633 5635 5635 5635 5638 5640 5642 5645 5647 5650 5653 5654 5655 5658 5660 5662 5663 5665 5665 5666 5666 5666 5665 5665 5664 5663 5661 5658 5657 5653 5652 5652 5648 5646 5642
5664 5660 5657 5654 5651 5649 5648 5647 5645 5645 5646 5648 5648 5649 5651 5652 5654 5654 5655 5656 5657 5658 5659 5660 5660 5660 5660 5660 5659 5659 5657 5656 5654 5651 5649 5646 5644 5643 5640 5637 5633 5630 5627
5669 5666 5665 5662 5660 5658 5656 5656 5655 5655 5654 5654 5654 5655 5655 5655 5655 5656 5656 5656 5656 5656 5656 5656 5655 5655 5654 5652 5651 5650 5648 5645 5642 5640 5636 5633 5630 5626 5622 5619 5617 5613 5608
5673 5671 5668 5666 5664 5663 5662 5661 5659 5658 5657 5657 5657 5656 5656 5656 5655 5655 5655 5654 5653 5652 5651 5650 5648 5647 5646 5644 5642 5640 5637 5634 5631 5628 5624 5620 5616 5612 5607 5603 5597 5591 5584
5674 5672 5670 5668 5666 5665 5663 5662 5660 5659 5658 5657 5656 5655 5655 5653 5652 5651 5649 5648 5647 5646 5644 5642 5640 5638 5636 5633 5631 5628 5626 5623 5619 5614 5610 5605 5599 5593 5589 5583 5576 5569 5560
5671 5669 5667 5665 5664 5663 5661 5659 5658 5657 5656 5655 5653 5652 5651 5649 5647 5645 5643 5642 5639 5637 5635 5632 5630 5627 5623 5620 5617 5614 5610 5606 5601 5595 5590 5585 5579 5572 5568 5564 5557 5548 5535
5668 5665 5663 5661 5659 5658 5656 5654 5653 5651 5650 5648 5647 5645 5643 5642 5640 5638 5635 5633 5630 5627 5624 5622 5618 5615 5611 5607 5603 5600 5596 5591 5586 5579 5573 5567 5560 5552 5547 5545 5538 5528 5515
5664 5661 5659 5657 5655 5652 5650 5649 5647 5646 5644 5642 5640 5638 5635 5633 5631 5628 5625 5623 5620 5616 5613 5609 5605 5600 5596 5592 5588 5584 5579 5575 5569 5561 5554 5547 5541 5534 5527 5520 5513 5505 5490
5660 5657 5654 5652 5649 5647 5645 5643 5640 5638 5636 5633 5630 5628 5625 5622 5619 5616 5613 5609 5606 5602 5598 5594 5590 5585 5580 5575 5570 5565 5560 5555 5550 5543 5535 5529 5521 5512 5503 5493 5485 5474 5461
5654 5652 5649 5647 5644 5641 5639 5636 5633 5630 5627 5624 5621 5618 5614 5611 5607 5603 5599 5596 5592 5588 5584 5578 5572 5567 5562 5557 5551 5545 5539 5533 5529 5523 5517 5511 5502 5492 5482 5469 5459 5449 5438
5648 5645 5642 5639 5637 5634 5631 5628 5624 5621 5617 5614 5611 5607 5603 5599 5595 5591 5587 5582 5577 5572 5568 5563 5557 5549 5543 5537 5531 5525 5519 5513 5509 5505 5499 5491 5483 5474 5464 5452 5438 5427 5420
5642 5639 5636 5633 5630 5626 5623 5619 5615 5611 5607 5602 5598 5593 5589 5584 5578 5573 5568 5564 5559 5553 5548 5543 5536 5530 5523 5518 5512 5507 5500 5495 5492 5487 5480 5471 5463 5454 5444 5433 5422 5414 5406
5636 5632 5629 5626 5622 5618 5614 5610 5605 5601 5597 5593 5588 5583 5577 5571 5565 5559 5552 5544 5538 5533 5526 5521 5515 5510 5504 5498 5494 5489 5483 5479 5474 5468 5461 5452 5443 5434 5424 5415 5408 5400 5392
5629 5625 5621 5617 5613 5609 5604 5600 5597 5592 5587 5582 5577 5571 5565 5559 5552 5545 5536 5527 5517 5511 5505 5499 5494 5489 5484 5480 5476 5471 5466 5461 5456 5449 5442 5433 5425 5416 5407 5400 5394 5387 5381